Showing default

NORSAT 1, 42826

Orbit data source: Space-Track

NORSAT 1, 42826 is a payload satellite owned by Statsat (NO) in SSO that was launched on Fri, 14 Jul 2017 UTC via a SOYUZ-2-1A launch vehicle from the Tyuratam Missile And Space Complex (TTMTR). Payload-class satellites include a variety of spacecraft equipped with specific instruments for various scientific and technological missions. These include communications satellites like Starlink; space stations such as the ISS; scientific satellites like the Hubble; Earth observation satellites from companies like Planet Labs, Umbra, and HawkEye 360; GPS; miniature CubeSats for education and research; and military/defense satellites.

Loading next visibility...
Identifier
42826, 2017-042B
Orbit
SSO
Country
Flag of NONO / NOR
Related business
Manufacturer
UTIAS-SFL
Mission
Operational Commercial Communications
Bus & Motor
GNB, Unknown motor
Mass
30 kg wet, 30 kg dry
Launch date (UTC)
2017-07-14 (9 years ago)
Launch vehicle
SOYUZ-2-1A
Launch site
Tyuratam Missile And Space Complex (TTMTR)
Object type
Payload
Rocket body
Debris
Shape & HBR
Box + 2 Pan + 4 Ant, 1.0 m
Radar Cross Section
0.202 m², Medium (>0.1 m² and < 1m²)

Expand to show TLE details & history
Last TLE update: 1 day ago

TLE from 1 day ago
0 NORSAT 1
1 42826U 17042B   26263.47478477  .00004869  00000-0  26361-3 0  9991
2 42826  97.4540  69.1924 0008191 109.3780 250.8338 15.15060578501655
Epoch: 2026-09-20T11:23Z
TLE epoch observation values (Epoch: 2026-09-20T11:23:41.404Z)
Latitude
-0.00004°
Longitude
-101.09855°
Altitude
525.737 km
Speed
7.599 km/s
True Right ascension
04h 36m 46s
True Declination
0° 00' 00"
Sunlit
Object was in daylight at epoch
Visualization orbit readout
Latitude
Unknown
Longitude
Unknown
Altitude
Unknown
Speed
Unknown
Apparent Right ascension
Unknown
Apparent Declination
Unknown
Sunlit
N/A
Visualization observer readout
Local Sidereal Time
06:57:00
Azimuth
Unknown
Elevation
Unknown
Doppler factor
Unknown
Orbital elements
Apogee altitude
523.418 km
Perigee altitude
512.121 km
Semi-major axis
6,895.906 km
Eccentricity
0.00082
Inclination
97.454°
RAAN
69.1924°
Arg. of periapsis
109.378°
True anomaly
250.74517°
Mean anomaly
250.8338°
Eccentric anomaly
250.78948°
Mean motion
3.79015 °/min
Orbital period
94.98 mins
BSTAR
0.00026361
Loading maneuver chart data...
Computing Atmospheric mass density...

Documentation

Showing up to 5 results
|